• In Lithuania
  • List of Countries
  • For 7 days
  • Water Temperature
  • Satellite Maps
  • Weather Map
  • Weather Widgets
  • user-avatar
    Login

    Hourly Weather Klagenfurt

    Today, 23 June, Saturday

    Time Temperature Precipitation Wind Pressure Humidity
    00:00 +7°C° 0 mm 1 mps 693 mmHg 90%
    01:00 +6°C° 0 mm 1 mps 693 mmHg 88%
    02:00 +6°C° 0 mm 1 mps 693 mmHg 88%
    03:00 +6°C° 0 mm 1 mps 693 mmHg 88%
    04:00 +5°C° 0 mm 1 mps 693 mmHg 88%
    05:00 +7°C° 0 mm 1 mps 693 mmHg 80%
    06:00 +9°C° 0 mm 1 mps 694 mmHg 72%
    07:00 +11°C° 0 mm 1 mps 694 mmHg 65%
    08:00 +14°C° 0 mm 1 mps 694 mmHg 56%
    09:00 +16°C° 0 mm 1 mps 695 mmHg 48%
    10:00 +19°C° 0 mm 1 mps 695 mmHg 39%
    11:00 +20°C° 0 mm 1 mps 695 mmHg 38%
    12:00 +21°C° 0 mm 1 mps 695 mmHg 36%
    13:00 +22°C° 0 mm 1 mps 694 mmHg 35%
    14:00 +21°C° 0 mm 1 mps 694 mmHg 37%
    15:00 +21°C° 0 mm 1 mps 694 mmHg 39%
    16:00 +19°C° 0 mm 2 mps 693 mmHg 41%
    17:00 +19°C° 0.1 mm 1 mps 693 mmHg 51%
    18:00 +16°C° 0.1 mm 1 mps 693 mmHg 61%
    19:00 +15°C° 0.1 mm 1 mps 693 mmHg 72%
    20:00 +13°C° 0 mm 1 mps 693 mmHg 76%
    21:00 +12°C° 0 mm 1 mps 693 mmHg 80%
    22:00 +10°C° 0 mm 1 mps 693 mmHg 83%
    23:00 +10°C° 0 mm 1 mps 693 mmHg 85%

    Tomorrow, 24 June, Sunday

    Time Temperature Precipitation Wind Pressure Humidity
    00:00 +9°C° 0 mm 1 mps 693 mmHg 86%
    01:00 +9°C° 0 mm 1 mps 693 mmHg 88%
    02:00 +9°C° 0 mm 1 mps 693 mmHg 88%
    03:00 +8°C° 0 mm 1 mps 692 mmHg 89%
    04:00 +8°C° 0 mm 1 mps 692 mmHg 90%
    05:00 +10°C° 0 mm 1 mps 692 mmHg 85%
    06:00 +11°C° 0 mm 1 mps 693 mmHg 79%
    07:00 +13°C° 0 mm 1 mps 693 mmHg 74%
    08:00 +15°C° 0 mm 1 mps 693 mmHg 67%
    09:00 +18°C° 0 mm 1 mps 693 mmHg 61%
    10:00 +19°C° 0 mm 1 mps 694 mmHg 54%
    11:00 +20°C° 0.3 mm 1 mps 694 mmHg 56%
    12:00 +20°C° 0.3 mm 1 mps 693 mmHg 57%
    13:00 +21°C° 0.3 mm 1 mps 693 mmHg 58%
    14:00 +20°C° 0.6 mm 1 mps 693 mmHg 62%
    15:00 +19°C° 0.6 mm 1 mps 693 mmHg 66%
    16:00 +19°C° 0.6 mm 1 mps 692 mmHg 70%
    17:00 +15°C° 0.5 mm 0 mps 692 mmHg 76%
    18:00 +14°C° 0.5 mm 0 mps 692 mmHg 82%
    19:00 +13°C° 0.5 mm 0 mps 691 mmHg 87%
    20:00 +12°C° 0.4 mm 0 mps 692 mmHg 89%
    21:00 +12°C° 0.4 mm 1 mps 692 mmHg 91%
    22:00 +12°C° 0.4 mm 1 mps 692 mmHg 92%
    23:00 +11°C° 0.2 mm 1 mps 692 mmHg 93%

    Day after tomorrow, 25 June, Monday

    Time Temperature Precipitation Wind Pressure Humidity
    00:00 +11°C° 0.2 mm 1 mps 692 mmHg 94%
    01:00 +10°C° 0.2 mm 1 mps 692 mmHg 95%
    02:00 +10°C° 0.1 mm 1 mps 691 mmHg 96%
    03:00 +9°C° 0.1 mm 1 mps 691 mmHg 96%
    04:00 +9°C° 0.1 mm 1 mps 691 mmHg 96%
    05:00 +10°C° 0.1 mm 1 mps 691 mmHg 93%
    06:00 +11°C° 0.1 mm 1 mps 692 mmHg 90%
    07:00 +12°C° 0.1 mm 1 mps 692 mmHg 87%
    08:00 +14°C° 0.2 mm 1 mps 692 mmHg 79%
    09:00 +15°C° 0.2 mm 1 mps 693 mmHg 71%
    10:00 +17°C° 0.2 mm 2 mps 693 mmHg 63%
    11:00 +18°C° 0.4 mm 2 mps 693 mmHg 61%
    12:00 +18°C° 0.4 mm 2 mps 693 mmHg 60%
    13:00 +19°C° 0.4 mm 2 mps 693 mmHg 58%
    14:00 +19°C° 0.4 mm 2 mps 693 mmHg 57%
    15:00 +19°C° 0.4 mm 2 mps 693 mmHg 55%
    16:00 +19°C° 0.4 mm 2 mps 693 mmHg 54%
    17:00 +19°C° 0.2 mm 1 mps 693 mmHg 62%
    18:00 +18°C° 0.2 mm 1 mps 693 mmHg 69%
    19:00 +16°C° 0.2 mm 1 mps 693 mmHg 77%
    20:00 +14°C° 0.1 mm 1 mps 693 mmHg 81%
    21:00 +12°C° 0.1 mm 1 mps 693 mmHg 86%
    22:00 +10°C° 0.1 mm 1 mps 693 mmHg 90%
    23:00 +10°C° 0 mm 1 mps 693 mmHg 91%

    26 June, Tuesday

    Time Temperature Precipitation Wind Pressure Humidity
    00:00 +9°C° 0 mm 1 mps 693 mmHg 91%
    01:00 +9°C° 0 mm 1 mps 693 mmHg 92%
    02:00 +9°C° 0 mm 1 mps 693 mmHg 92%
    03:00 +8°C° 0 mm 1 mps 693 mmHg 92%
    04:00 +8°C° 0 mm 1 mps 693 mmHg 92%
    05:00 +10°C° 0 mm 1 mps 693 mmHg 85%
    06:00 +12°C° 0 mm 1 mps 693 mmHg 79%
    07:00 +14°C° 0 mm 1 mps 694 mmHg 72%
    08:00 +16°C° 0 mm 2 mps 694 mmHg 63%
    09:00 +18°C° 0 mm 2 mps 694 mmHg 53%
    10:00 +20°C° 0 mm 3 mps 695 mmHg 43%
    11:00 +20°C° 0 mm 3 mps 694 mmHg 42%
    12:00 +21°C° 0 mm 3 mps 694 mmHg 40%
    13:00 +21°C° 0 mm 3 mps 694 mmHg 39%
    14:00 +21°C° 0 mm 3 mps 694 mmHg 39%
    15:00 +21°C° 0 mm 3 mps 694 mmHg 40%
    16:00 +21°C° 0 mm 3 mps 694 mmHg 41%
    17:00 +20°C° 0 mm 2 mps 694 mmHg 49%
    18:00 +19°C° 0 mm 2 mps 694 mmHg 58%
    19:00 +18°C° 0 mm 1 mps 694 mmHg 67%
    20:00 +15°C° 0 mm 1 mps 694 mmHg 72%
    21:00 +14°C° 0 mm 1 mps 694 mmHg 76%
    22:00 +12°C° 0 mm 1 mps 694 mmHg 80%
    23:00 +11°C° 0 mm 1 mps 694 mmHg 82%

    27 June, Wednesday

    Time Temperature Precipitation Wind Pressure Humidity
    00:00 +11°C° 0 mm 1 mps 693 mmHg 83%
    01:00 +10°C° 0 mm 1 mps 693 mmHg 85%
    02:00 +10°C° 0 mm 1 mps 693 mmHg 86%
    03:00 +10°C° 0 mm 1 mps 693 mmHg 87%
    04:00 +10°C° 0 mm 1 mps 693 mmHg 89%
    05:00 +12°C° 0 mm 1 mps 693 mmHg 82%
    06:00 +14°C° 0 mm 1 mps 694 mmHg 75%
    07:00 +16°C° 0 mm 1 mps 694 mmHg 68%
    08:00 +18°C° 0 mm 2 mps 694 mmHg 59%
    09:00 +19°C° 0 mm 2 mps 694 mmHg 50%
    10:00 +21°C° 0 mm 3 mps 694 mmHg 42%
    11:00 +22°C° 0 mm 3 mps 694 mmHg 39%
    12:00 +24°C° 0 mm 3 mps 694 mmHg 36%
    13:00 +25°C° 0 mm 3 mps 694 mmHg 34%
    14:00 +25°C° 0 mm 3 mps 694 mmHg 36%
    15:00 +25°C° 0 mm 3 mps 693 mmHg 37%
    16:00 +25°C° 0 mm 3 mps 693 mmHg 39%
    17:00 +23°C° 0 mm 2 mps 693 mmHg 50%
    18:00 +20°C° 0 mm 2 mps 693 mmHg 60%
    19:00 +20°C° 0 mm 1 mps 692 mmHg 70%
    20:00 +18°C° 0.1 mm 1 mps 692 mmHg 75%
    21:00 +15°C° 0.1 mm 1 mps 692 mmHg 80%
    22:00 +14°C° 0.1 mm 1 mps 692 mmHg 85%
    23:00 +13°C° 0 mm 1 mps 692 mmHg 87%

    28 June, Thursday

    Time Temperature Precipitation Wind Pressure Humidity
    00:00 +12°C° 0 mm 1 mps 692 mmHg 89%
    01:00 +12°C° 0 mm 1 mps 692 mmHg 90%
    02:00 +11°C° 0 mm 1 mps 691 mmHg 91%
    03:00 +11°C° 0 mm 1 mps 691 mmHg 91%
    04:00 +11°C° 0 mm 1 mps 691 mmHg 92%
    05:00 +12°C° 0 mm 1 mps 691 mmHg 85%
    06:00 +14°C° 0 mm 1 mps 691 mmHg 78%
    07:00 +16°C° 0 mm 1 mps 691 mmHg 72%
    08:00 +19°C° 0 mm 1 mps 691 mmHg 62%
    09:00 +20°C° 0 mm 2 mps 692 mmHg 53%
    10:00 +23°C° 0 mm 2 mps 692 mmHg 43%
    11:00 +23°C° 0.2 mm 2 mps 691 mmHg 45%
    12:00 +23°C° 0.2 mm 2 mps 691 mmHg 47%
    13:00 +21°C° 0.2 mm 2 mps 691 mmHg 50%
    14:00 +21°C° 0.4 mm 2 mps 690 mmHg 52%
    15:00 +21°C° 0.4 mm 2 mps 690 mmHg 54%
    16:00 +20°C° 0.4 mm 2 mps 690 mmHg 57%
    17:00 +20°C° 0.4 mm 1 mps 690 mmHg 64%
    18:00 +19°C° 0.4 mm 1 mps 690 mmHg 70%
    19:00 +16°C° 0.4 mm 1 mps 690 mmHg 77%
    20:00 +15°C° 0.3 mm 1 mps 690 mmHg 80%
    21:00 +14°C° 0.3 mm 1 mps 690 mmHg 83%
    22:00 +13°C° 0.3 mm 1 mps 689 mmHg 86%
    23:00 +12°C° 0.2 mm 1 mps 689 mmHg 88%
    Show more